Terminal Aerodrome Forecast
Issued by NWS

Home | Current Version | Previous Version | Text Only | Print | Product List | Glossary On
Versions: 1 2 3 4 5 6 7 8 9 10 11 12 13 14 15 16 17 18 19 20 21 22 23 24 25 26 27
000
FTUS44 KHGX 292326
TAFUTS
TAF
KUTS 292326Z 3000/3024 VRB04KT P6SM VCSH SCT050 BKN250
     FM300200 VRB03KT P6SM FEW025 SCT120
      TEMPO 3011/3014 BKN008
     FM301600 06003KT P6SM SCT030 BKN250
     FM301900 07005KT P6SM SCT040 BKN250 PROB30 3019/3023 TSRA
      BKN035CB=

USA.gov is the U.S. government's official web portal to all federal, state and local government web resources and services.